Time,TemperatureF,DewpointF,PressureIn,WindDirection,WindDirectionDegrees,WindSpeedMPH,WindSpeedGustMPH,Humidity,HourlyPrecipIn,Conditions,Clouds,dailyrainin,SolarRadiationWatts/m^2,SoftwareType,DateUTC
2013-06-12 00:02:00,57.0,50.0,-100.00,SSE,158,4.0,5.0,76,0.00,,,0.00,3.000000,,2013-06-12 08:02:00,
2013-06-12 00:12:00,57.0,50.0,-100.00,SSE,158,4.0,5.0,76,0.00,,,0.00,3.000000,,2013-06-12 08:12:00,
2013-06-12 00:22:00,57.0,50.0,-100.00,SSE,158,4.0,5.0,76,0.00,,,0.00,3.000000,,2013-06-12 08:22:00,
2013-06-12 00:43:00,54.0,47.0,-100.00,SSE,153,2.0,5.0,78,0.00,,,0.00,0.000000,,2013-06-12 08:43:00,
2013-06-12 00:53:00,54.0,47.0,-100.00,SSE,153,2.0,5.0,78,0.00,,,0.00,0.000000,,2013-06-12 08:53:00,
2013-06-12 01:01:00,54.0,47.0,-100.00,SSE,153,2.0,5.0,78,0.00,,,0.00,0.000000,,2013-06-12 09:01:00,
2013-06-12 01:11:00,54.0,47.0,-100.00,SSE,153,2.0,5.0,78,0.00,,,0.00,0.000000,,2013-06-12 09:11:00,
2013-06-12 01:22:00,54.0,47.0,-100.00,SSE,153,2.0,5.0,78,0.00,,,0.00,0.000000,,2013-06-12 09:22:00,
2013-06-12 01:43:00,52.0,47.0,-100.00,SSE,167,1.0,4.0,85,0.00,,,0.00,0.000000,,2013-06-12 09:43:00,
2013-06-12 01:53:00,52.0,47.0,-100.00,SSE,167,1.0,4.0,85,0.00,,,0.00,0.000000,,2013-06-12 09:53:00,
2013-06-12 02:01:00,52.0,47.0,-100.00,SSE,167,1.0,4.0,85,0.00,,,0.00,0.000000,,2013-06-12 10:01:00,
2013-06-12 02:11:00,52.0,47.0,-100.00,SSE,167,1.0,4.0,85,0.00,,,0.00,0.000000,,2013-06-12 10:11:00,
2013-06-12 02:23:00,52.0,47.0,-100.00,SSE,167,1.0,4.0,85,0.00,,,0.00,0.000000,,2013-06-12 10:23:00,
2013-06-12 02:24:00,50.0,46.0,-100.00,South,170,1.0,3.0,87,0.00,,,0.00,0.000000,,2013-06-12 10:24:00,
2013-06-12 02:43:00,50.0,46.0,-100.00,South,170,1.0,3.0,87,0.00,,,0.00,0.000000,,2013-06-12 10:43:00,
2013-06-12 02:53:00,50.0,46.0,-100.00,South,170,1.0,3.0,87,0.00,,,0.00,0.000000,,2013-06-12 10:53:00,
2013-06-12 03:02:00,50.0,46.0,-100.00,South,170,1.0,3.0,87,0.00,,,0.00,0.000000,,2013-06-12 11:02:00,
2013-06-12 03:12:00,50.0,46.0,-100.00,South,170,1.0,3.0,87,0.00,,,0.00,0.000000,,2013-06-12 11:12:00,
2013-06-12 03:43:00,48.0,45.0,-100.00,South,178,1.0,2.0,90,0.00,,,0.00,0.000000,,2013-06-12 11:43:00,
2013-06-12 03:53:00,48.0,45.0,-100.00,South,178,1.0,2.0,90,0.00,,,0.00,0.000000,,2013-06-12 11:53:00,
2013-06-12 04:01:00,48.0,45.0,-100.00,South,178,1.0,2.0,90,0.00,,,0.00,0.000000,,2013-06-12 12:01:00,
2013-06-12 04:11:00,48.0,45.0,-100.00,South,178,1.0,2.0,90,0.00,,,0.00,0.000000,,2013-06-12 12:11:00,
2013-06-12 04:23:00,48.0,45.0,-100.00,South,178,1.0,2.0,90,0.00,,,0.00,0.000000,,2013-06-12 12:23:00,
2013-06-12 06:43:00,46.0,44.0,-100.00,SSE,168,1.0,2.0,91,-99.99,,,0.00,54.000000,,2013-06-12 14:43:00,
2013-06-12 09:42:00,61.0,46.0,-100.00,West,280,1.0,3.0,58,-99.99,,,0.00,442.000000,,2013-06-12 17:42:00,
2013-06-12 09:52:00,61.0,46.0,-100.00,West,280,1.0,3.0,58,-99.99,,,0.00,442.000000,,2013-06-12 17:52:00,
2013-06-12 10:02:00,61.0,46.0,-100.00,West,280,1.0,3.0,58,-99.99,,,0.00,442.000000,,2013-06-12 18:02:00,
2013-06-12 10:12:00,61.0,46.0,-100.00,West,280,1.0,3.0,58,-99.99,,,0.00,442.000000,,2013-06-12 18:12:00,
2013-06-12 10:22:00,61.0,46.0,-100.00,West,280,1.0,3.0,58,-99.99,,,0.00,442.000000,,2013-06-12 18:22:00,
2013-06-12 10:43:00,63.0,44.0,-100.00,WNW,286,2.0,5.0,51,0.00,,,0.00,541.000000,,2013-06-12 18:43:00,
2013-06-12 10:53:00,63.0,44.0,-100.00,WNW,286,2.0,5.0,51,0.00,,,0.00,541.000000,,2013-06-12 18:53:00,
2013-06-12 11:01:00,63.0,44.0,-100.00,WNW,286,2.0,5.0,51,0.00,,,0.00,541.000000,,2013-06-12 19:01:00,
2013-06-12 11:11:00,63.0,44.0,-100.00,WNW,286,2.0,5.0,51,0.00,,,0.00,541.000000,,2013-06-12 19:11:00,
2013-06-12 11:22:00,63.0,44.0,-100.00,WNW,286,2.0,5.0,51,0.00,,,0.00,541.000000,,2013-06-12 19:22:00,
2013-06-12 11:43:00,63.0,45.0,-100.00,NNW,346,2.0,5.0,53,0.00,,,0.00,616.000000,,2013-06-12 19:43:00,
2013-06-12 11:52:00,63.0,45.0,-100.00,NNW,346,2.0,5.0,53,0.00,,,0.00,616.000000,,2013-06-12 19:52:00,
2013-06-12 12:01:00,63.0,45.0,-100.00,NNW,346,2.0,5.0,53,0.00,,,0.00,616.000000,,2013-06-12 20:01:00,
2013-06-12 12:11:00,63.0,45.0,-100.00,NNW,346,2.0,5.0,53,0.00,,,0.00,616.000000,,2013-06-12 20:11:00,
2013-06-12 12:21:00,63.0,45.0,-100.00,NNW,346,2.0,5.0,53,0.00,,,0.00,616.000000,,2013-06-12 20:21:00,
2013-06-12 12:43:00,63.0,45.0,-100.00,North,4,3.0,7.0,53,0.00,,,0.00,679.000000,,2013-06-12 20:43:00,
2013-06-12 12:54:00,63.0,45.0,-100.00,North,4,3.0,7.0,53,0.00,,,0.00,679.000000,,2013-06-12 20:54:00,
2013-06-12 13:01:00,63.0,45.0,-100.00,North,4,3.0,7.0,53,0.00,,,0.00,679.000000,,2013-06-12 21:01:00,
2013-06-12 13:43:00,64.0,44.0,-100.00,North,4,4.0,7.0,47,-99.99,,,0.00,719.000000,,2013-06-12 21:43:00,
2013-06-12 13:53:00,64.0,44.0,-100.00,North,4,4.0,7.0,47,-99.99,,,0.00,719.000000,,2013-06-12 21:53:00,
2013-06-12 14:01:00,64.0,44.0,-100.00,North,4,4.0,7.0,47,-99.99,,,0.00,719.000000,,2013-06-12 22:01:00,
2013-06-12 14:11:00,64.0,44.0,-100.00,North,4,4.0,7.0,47,-99.99,,,0.00,719.000000,,2013-06-12 22:11:00,
2013-06-12 14:22:00,64.0,44.0,-100.00,North,4,4.0,7.0,47,-99.99,,,0.00,719.000000,,2013-06-12 22:22:00,
2013-06-12 14:43:00,66.0,42.0,-100.00,North,5,5.0,8.0,41,-99.99,,,0.00,728.000000,,2013-06-12 22:43:00,
2013-06-12 14:52:00,66.0,42.0,-100.00,North,5,5.0,8.0,41,-99.99,,,0.00,728.000000,,2013-06-12 22:52:00,
2013-06-12 15:01:00,66.0,42.0,-100.00,North,5,5.0,8.0,41,-99.99,,,0.00,728.000000,,2013-06-12 23:01:00,
2013-06-12 15:11:00,66.0,42.0,-100.00,North,5,5.0,8.0,41,-99.99,,,0.00,728.000000,,2013-06-12 23:11:00,
2013-06-12 15:22:00,66.0,42.0,-100.00,North,5,5.0,8.0,41,-99.99,,,0.00,728.000000,,2013-06-12 23:22:00,
2013-06-12 15:42:00,68.0,41.0,-100.00,North,356,4.0,6.0,38,0.00,,,-99.99,470.000000,,2013-06-12 23:42:00,
2013-06-12 15:52:00,68.0,41.0,-100.00,North,356,4.0,6.0,38,0.00,,,-99.99,470.000000,,2013-06-12 23:52:00,
2013-06-12 16:01:00,68.0,41.0,-100.00,North,356,4.0,6.0,38,0.00,,,-99.99,470.000000,,2013-06-13 00:01:00,
2013-06-12 16:11:00,68.0,41.0,-100.00,North,356,4.0,6.0,38,0.00,,,-99.99,470.000000,,2013-06-13 00:11:00,
2013-06-12 16:22:00,68.0,41.0,-100.00,North,356,4.0,6.0,38,0.00,,,-99.99,470.000000,,2013-06-13 00:22:00,
2013-06-12 16:43:00,70.0,44.0,-100.00,North,11,4.0,7.0,39,0.00,,,0.00,230.000000,,2013-06-13 00:43:00,
2013-06-12 16:52:00,70.0,44.0,-100.00,North,11,4.0,7.0,39,0.00,,,0.00,230.000000,,2013-06-13 00:52:00,
2013-06-12 17:01:00,70.0,44.0,-100.00,North,11,4.0,7.0,39,0.00,,,0.00,230.000000,,2013-06-13 01:01:00,
2013-06-12 17:11:00,70.0,44.0,-100.00,North,11,4.0,7.0,39,0.00,,,0.00,230.000000,,2013-06-13 01:11:00,
2013-06-12 17:22:00,70.0,44.0,-100.00,North,11,4.0,7.0,39,0.00,,,0.00,230.000000,,2013-06-13 01:22:00,
2013-06-12 17:43:00,70.0,44.0,-100.00,North,5,2.0,4.0,39,0.00,,,0.00,604.000000,,2013-06-13 01:43:00,
2013-06-12 17:53:00,70.0,44.0,-100.00,North,5,2.0,4.0,39,0.00,,,0.00,604.000000,,2013-06-13 01:53:00,
2013-06-12 18:01:00,70.0,44.0,-100.00,North,5,2.0,4.0,39,0.00,,,0.00,604.000000,,2013-06-13 02:01:00,
2013-06-12 18:11:00,70.0,44.0,-100.00,North,5,2.0,4.0,39,0.00,,,0.00,604.000000,,2013-06-13 02:11:00,
2013-06-12 18:22:00,70.0,44.0,-100.00,North,5,2.0,4.0,39,0.00,,,0.00,604.000000,,2013-06-13 02:22:00,
2013-06-12 18:43:00,72.0,46.0,-100.00,NNW,347,2.0,5.0,40,0.00,,,0.00,521.000000,,2013-06-13 02:43:00,
2013-06-12 18:52:00,72.0,46.0,-100.00,NNW,347,2.0,5.0,40,0.00,,,0.00,521.000000,,2013-06-13 02:52:00,
2013-06-12 19:01:00,72.0,46.0,-100.00,NNW,347,2.0,5.0,40,0.00,,,0.00,521.000000,,2013-06-13 03:01:00,
2013-06-12 19:11:00,72.0,46.0,-100.00,NNW,347,2.0,5.0,40,0.00,,,0.00,521.000000,,2013-06-13 03:11:00,
2013-06-12 19:22:00,72.0,46.0,-100.00,NNW,347,2.0,5.0,40,0.00,,,0.00,521.000000,,2013-06-13 03:22:00,
2013-06-12 19:43:00,72.0,47.0,-100.00,NNW,347,1.0,3.0,41,0.00,,,0.00,409.000000,,2013-06-13 03:43:00,
2013-06-12 19:52:00,72.0,47.0,-100.00,NNW,347,1.0,3.0,41,0.00,,,0.00,409.000000,,2013-06-13 03:52:00,
2013-06-12 20:01:00,72.0,47.0,-100.00,NNW,347,1.0,3.0,41,0.00,,,0.00,409.000000,,2013-06-13 04:01:00,
2013-06-12 20:11:00,72.0,47.0,-100.00,NNW,347,1.0,3.0,41,0.00,,,0.00,409.000000,,2013-06-13 04:11:00,
2013-06-12 20:22:00,72.0,47.0,-100.00,NNW,347,1.0,3.0,41,0.00,,,0.00,409.000000,,2013-06-13 04:22:00,
2013-06-12 20:43:00,64.0,51.0,-100.00,ESE,108,0.0,3.0,61,0.00,,,0.00,60.000000,,2013-06-13 04:43:00,
2013-06-12 20:53:00,64.0,51.0,-100.00,ESE,108,0.0,3.0,61,0.00,,,0.00,60.000000,,2013-06-13 04:53:00,
2013-06-12 21:02:00,64.0,51.0,-100.00,ESE,108,0.0,3.0,61,0.00,,,0.00,60.000000,,2013-06-13 05:02:00,
2013-06-12 21:43:00,59.0,50.0,-100.00,SSE,155,1.0,2.0,71,0.00,,,0.00,57.000000,,2013-06-13 05:43:00,
2013-06-12 21:53:00,59.0,50.0,-100.00,SSE,155,1.0,2.0,71,0.00,,,0.00,57.000000,,2013-06-13 05:53:00,
2013-06-12 22:02:00,59.0,50.0,-100.00,SSE,155,1.0,2.0,71,0.00,,,0.00,57.000000,,2013-06-13 06:02:00,
2013-06-12 22:11:00,59.0,50.0,-100.00,SSE,155,1.0,2.0,71,0.00,,,0.00,57.000000,,2013-06-13 06:11:00,
2013-06-12 22:22:00,59.0,50.0,-100.00,SSE,155,1.0,2.0,71,0.00,,,0.00,57.000000,,2013-06-13 06:22:00,
2013-06-12 23:22:00,55.0,48.0,-100.00,SSE,162,1.0,3.0,75,-99.99,,,0.00,25.000000,,2013-06-13 07:22:00,
2013-06-12 23:42:00,54.0,46.0,-100.00,SSE,165,1.0,3.0,76,0.00,,,0.00,1.000000,,2013-06-13 07:42:00,
2013-06-12 23:52:00,54.0,46.0,-100.00,SSE,165,1.0,3.0,76,0.00,,,0.00,1.000000,,2013-06-13 07:52:00,